sat.trackr.live / text

‹ back to catalog

PE2_FLT2 (TYVAK-0262)

NORAD 59104 · 2024-043G

PAYLOAD ACTIVE UNKNOWN

§ Identity

Operator
Country
US
Launch date
2024-03-04
Launch site
AFWTR
Launch vehicle
Mass (kg)
RCS (m²)

External: N2YO · Heavens-Above · Gunter

§ Orbital elements

Epoch: 2026-09-22T14:46:01.547616Z

Period
96.15 min
Inclination
97.8520°
Eccentricity
0.0007050
Mean motion
14.97596514 rev/d
Perigee alt
569.4 km
Apogee alt
579.2 km
Semi-major
6,952.5 km
B*
8.8496e-5
RAAN
36.6685°
Arg perigee
78.8757°
Mean anomaly
281.3257°
Rev number
13,923

§ Raw data

PE2_FLT2  (TYVAK-0262)1 59104U 24043G   26265.61529569  .00000974  00000+0  88496-4 0  99942 59104  97.8520  36.6685 0007050  78.8757 281.3257 14.97596514139237

JSON: /api/v1/satellites/59104 · /tle

For live sub-satellite position, see the globe view (requires WebGL).

§ Visibility from observer

Set your observer location to see the next 7 days of passes ≥ 10°. The values pass through the URL so the page stays shareable.

No JS? Fill the form by hand. The geolocation button needs JavaScript.

§ Radio — SatNOGS DB

ModeDescriptionDownlinkUplink
QPSK Mode S - QPSK - Payload Transmitter 2.492 GHz
GMSK Mode U - GMSK19k6 401.340 MHz
FM Mode X - Payload Data 8.320 GHz

3 transmitters · refreshed weekly from db.satnogs.org